Regional Weather Roundup
Issued by NWS

Home | Current Version | Previous Version | Graphics & Text | Print | Product List | Glossary On
Versions: 1 2 3 4 5 6 7 8 9 10 11 12 13 14 15 16 17 18 19 20 21 22 23 24 25 26 27 28 29 30 31 32 33 34 35 36 37 38 39 40 41 42 43 44 45 46 47 48 49 50
753
ASUS44 KLIX 311601
RWRLA
LOUISIANA WEATHER ROUNDUP
NATIONAL WEATHER SERVICE NEW ORLEANS LA
1100 AM CDT FRI OCT 31 2014

NOTE: "FAIR" INDICATES FEW OR NO CLOUDS BELOW 12,000 FEET WITH NO
      SIGNIFICANT WEATHER AND/OR OBSTRUCTIONS TO VISIBILITY.
      SKY/WX - SKY CONDITION AND SIGNIFICANT WEATHER.
      TMP - AIR TEMPERATURE.    DP   - DEWPOINT TEMPERATURE.
      RH  - RELATIVE HUMIDITY.  PRES - PRESSURE.
      HX  - HEAT INDEX.         WCI  - WIND CHILL INDEX.

*  THESE STATIONS ARE NOT NWS OR FAA STATIONS AND ARE NOT UNDER
   NWS QUALITY CONTROL.

LAZ040-048-061>063-065-066-069-311700-
SOUTHEAST LOUISIANA

CITY           SKY/WX    TMP DP  RH WIND       PRES   REMARKS
N.O. AUDUBON     N/A     73  51  46 MISG        N/A
N.O. INTL ARPT SUNNY     72  48  42 NW13      30.06F
N.O. LAKEFRONT SUNNY     70  53  54 W13       30.06F
N.O. DOWNTOWN* FAIR      70  46  43 NW6       30.07S
SLIDELL        SUNNY     70  48  45 VRB6      30.04F
BATON ROUGE    SUNNY     69  47  45 NW9       30.09R
BOOTHVILLE     SUNNY     70  49  47 NW10      30.06F
BELLE CHASSE   SUNNY     72  46  39 NW9       30.06S
BOGALUSA*        N/A     72  47  42 N9        30.05F
NEW ROADS*     FAIR      67  48  50 NW9       30.10S
GONZALES*      FAIR      69  50  50 N8        30.08S
HAMMOND*       NOT AVBL
HOUMA*         SUNNY     70  48  46 NW10      30.08F
PORT FOURCHON* SUNNY     72  48  43 NW9G16    30.11S

$$

LAZ041-044-053-054-311700-
SOUTHWEST LOUISIANA

CITY           SKY/WX    TMP DP  RH WIND       PRES   REMARKS
LAKE CHARLES   SUNNY     71  47  42 N13       30.14R
LAFAYETTE      SUNNY     71  46  40 N13       30.12R
PATTERSON      SUNNY     70  52  52 NW9       30.12S
SALT POINT       N/A     70  51  51 NW8       30.09S
NEW IBERIA     SUNNY     71  47  42 N12       30.12R
CHENAULT AIRPK SUNNY     70  48  46 N14       30.15R

$$

LAZ027-028-311700-
CENTRAL LOUISIANA

CITY           SKY/WX    TMP DP  RH WIND       PRES   REMARKS
FORT POLK      NOT AVBL
ALEXANDRIA INT SUNNY     67  47  48 N12       30.13S
ALEXANDRIA     SUNNY     66  47  50 N10G18    30.14S

$$

LAZ001-002-311700-
NORTHWEST LOUISIANA

CITY           SKY/WX    TMP DP  RH WIND       PRES   REMARKS
SHREVEPORT     SUNNY     66  45  46 N16G23    30.20S
BARKSDALE AFB  NOT AVBL
DTN SHREVEPORT SUNNY     64  44  48 N12G21    30.21R

$$

LAZ014-016-311700-
NORTHEAST LOUISIANA

CITY           SKY/WX    TMP DP  RH WIND       PRES   REMARKS
MONROE         SUNNY     64  46  52 N17G24    30.15S
TALLULAH       SUNNY     65  48  54 NW10G18   30.11R

$$




USA.gov is the U.S. government's official web portal to all federal, state and local government web resources and services.